Tracking 29606 objects as of 18-Sep-2024
HD Live streaming from Space Station
objects crossing your sky now

STARLINK-30294

Track STARLINK-30294 now!
10-day predictions
STARLINK-30294 is classified as:


NORAD ID: 57651
Int'l Code: 2023-122V
Perigee: 565.6 km
Apogee: 566.8 km
Inclination: 43.0 °
Period: 95.8 minutes
Semi major axis: 6937 km
RCS: Unknown
Launch date: August 17, 2023
Source: United States (US)
Launch site: AIR FORCE EASTERN TEST RANGE (AFETR)
Your satellite tracking list
Your tracking list is empty




NASA's NSSDC Master Catalog

Two Line Element Set (TLE):
1 57651U 23122V   24261.33862244  .00000244  00000-0  33128-4 0  9992
2 57651  42.9995 126.8411 0000841 269.1792  90.8953 15.02546888 61352
Source of the keplerian elements: AFSPC